Torna al catalogo

NOAA 16 DEB

AttivoSSO
NORAD 41201·DEBRIS·🇺🇸 United States

Lanciato Sep 21, 2000 da Vandenberg Space Force Base

Loading…

Prossimi Passaggi (prossime 24 ore)

TLE

AggiornatoSource: Space-Track

Epoca: Sep 13, 2026, 07:33 UTC

1 41201U 00055DE  26256.31487856  .00001474  00000-0  79592-3 0  9992
2 41201  98.7562 291.8073 0043266  78.0761 282.5258 14.13705484552479

Traccia NOAA 16 DEB in tempo reale con AllMySat

Download on the App Store